TimeEDT,TemperatureF,Dew PointF,Humidity,Sea Level PressureIn,VisibilityMPH,Wind Direction,Wind SpeedMPH,Gust SpeedMPH,PrecipitationIn,Events,Conditions,WindDirDegrees,DateUTC
12:15 AM,80.6,78.8,94,29.99,10.0,SSW,3.5,-,N/A,,Clear,210,2013-09-04 04:15:00
12:35 AM,80.6,77.0,89,29.98,7.0,WSW,4.6,-,N/A,,Clear,240,2013-09-04 04:35:00
12:55 AM,80.6,78.8,94,29.98,7.0,West,4.6,-,N/A,,Clear,260,2013-09-04 04:55:00
1:15 AM,80.6,77.0,89,29.98,10.0,WSW,4.6,-,N/A,,Clear,250,2013-09-04 05:15:00
1:35 AM,80.6,77.0,89,29.98,10.0,WNW,3.5,-,N/A,,Clear,290,2013-09-04 05:35:00
1:55 AM,78.8,77.0,94,29.98,10.0,WSW,4.6,-,N/A,,Clear,240,2013-09-04 05:55:00
2:15 AM,78.8,77.0,94,29.98,7.0,WSW,5.8,-,N/A,,Clear,240,2013-09-04 06:15:00
2:35 AM,78.8,75.2,89,29.98,10.0,WSW,4.6,-,N/A,,Clear,240,2013-09-04 06:35:00
2:55 AM,78.8,75.2,89,29.98,10.0,Calm,Calm,-,N/A,,Unknown,0,2013-09-04 06:55:00
3:15 AM,78.8,75.2,89,29.98,10.0,SW,3.5,-,N/A,,Clear,230,2013-09-04 07:15:00
3:35 AM,78.8,75.2,89,29.98,10.0,Calm,Calm,-,N/A,,Clear,0,2013-09-04 07:35:00
3:55 AM,77.0,75.2,94,29.98,10.0,Calm,Calm,-,N/A,,Clear,0,2013-09-04 07:55:00
4:15 AM,77.0,75.2,94,29.98,7.0,Calm,Calm,-,N/A,,Clear,0,2013-09-04 08:15:00
4:35 AM,77.0,75.2,94,29.98,7.0,Calm,Calm,-,N/A,,Clear,0,2013-09-04 08:35:00
4:55 AM,75.2,75.2,100,29.98,7.0,Calm,Calm,-,N/A,,Clear,0,2013-09-04 08:55:00
5:15 AM,75.2,75.2,100,29.99,7.0,Calm,Calm,-,N/A,,Clear,0,2013-09-04 09:15:00
5:35 AM,75.2,75.2,100,29.99,7.0,Calm,Calm,-,N/A,,Clear,0,2013-09-04 09:35:00
5:55 AM,75.2,75.2,100,29.99,7.0,Calm,Calm,-,N/A,,Unknown,0,2013-09-04 09:55:00
6:15 AM,75.2,75.2,100,30.00,7.0,Calm,Calm,-,N/A,,Clear,0,2013-09-04 10:15:00
6:35 AM,75.2,75.2,100,30.00,7.0,Calm,Calm,-,N/A,,Clear,0,2013-09-04 10:35:00
6:55 AM,75.2,75.2,100,30.00,7.0,Calm,Calm,-,N/A,,Clear,0,2013-09-04 10:55:00
7:15 AM,75.2,75.2,100,30.01,7.0,Calm,Calm,-,N/A,,Clear,0,2013-09-04 11:15:00
7:35 AM,75.2,75.2,100,30.02,7.0,Calm,Calm,-,N/A,,Clear,0,2013-09-04 11:35:00
7:55 AM,75.2,75.2,100,30.03,7.0,Calm,Calm,-,N/A,,Clear,0,2013-09-04 11:55:00
8:15 AM,78.8,75.2,89,30.03,7.0,Calm,Calm,-,N/A,,Clear,0,2013-09-04 12:15:00
8:35 AM,78.8,77.0,94,30.03,10.0,West,3.5,-,N/A,,Clear,270,2013-09-04 12:35:00
8:55 AM,80.6,77.0,89,30.03,10.0,West,4.6,-,N/A,,Clear,260,2013-09-04 12:55:00
9:15 AM,82.4,77.0,84,30.04,10.0,West,4.6,-,N/A,,Clear,260,2013-09-04 13:15:00
9:35 AM,82.4,77.0,84,30.05,10.0,West,4.6,-,N/A,,Clear,280,2013-09-04 13:35:00
9:55 AM,84.2,77.0,79,30.05,10.0,Calm,Calm,-,N/A,,Clear,0,2013-09-04 13:55:00
10:15 AM,86.0,77.0,74,30.05,10.0,Calm,Calm,-,N/A,,Clear,0,2013-09-04 14:15:00
10:35 AM,87.8,77.0,70,30.06,10.0,Calm,Calm,-,N/A,,Clear,0,2013-09-04 14:35:00
10:55 AM,87.8,75.2,66,30.06,10.0,Calm,Calm,-,N/A,,Clear,0,2013-09-04 14:55:00
11:15 AM,89.6,75.2,62,30.06,10.0,NW,3.5,-,N/A,,Clear,320,2013-09-04 15:15:00
11:35 AM,89.6,75.2,62,30.06,10.0,Calm,Calm,-,N/A,,Clear,0,2013-09-04 15:35:00
11:55 AM,91.4,75.2,59,30.06,10.0,WSW,3.5,-,N/A,,Clear,250,2013-09-04 15:55:00
12:15 PM,91.4,77.0,63,30.06,10.0,West,4.6,-,N/A,,Clear,260,2013-09-04 16:15:00
12:35 PM,91.4,77.0,63,30.05,10.0,SW,5.8,-,N/A,,Clear,230,2013-09-04 16:35:00
12:55 PM,93.2,77.0,59,30.05,10.0,SSW,3.5,-,N/A,,Clear,200,2013-09-04 16:55:00
1:15 PM,93.2,78.8,63,30.05,10.0,SW,3.5,-,N/A,,Clear,230,2013-09-04 17:15:00
1:35 PM,93.2,77.0,59,30.04,10.0,SW,3.5,-,N/A,,Clear,220,2013-09-04 17:35:00
1:55 PM,93.2,75.2,56,30.04,10.0,SW,5.8,-,N/A,,Clear,230,2013-09-04 17:55:00
2:15 PM,93.2,75.2,56,30.04,10.0,Calm,Calm,-,N/A,,Clear,0,2013-09-04 18:15:00
2:35 PM,95.0,77.0,56,30.03,10.0,NNW,4.6,-,N/A,,Mostly Cloudy,340,2013-09-04 18:35:00
2:55 PM,95.0,75.2,53,30.03,10.0,South,4.6,-,N/A,,Scattered Clouds,190,2013-09-04 18:55:00
3:15 PM,93.2,75.2,56,30.02,10.0,Calm,Calm,-,N/A,,Clear,0,2013-09-04 19:15:00
3:35 PM,93.2,75.2,56,30.01,10.0,Calm,Calm,-,N/A,,Scattered Clouds,0,2013-09-04 19:35:00
3:55 PM,93.2,75.2,56,30.01,10.0,Calm,Calm,-,N/A,,Clear,0,2013-09-04 19:55:00
4:15 PM,93.2,75.2,56,30.00,10.0,WNW,4.6,-,N/A,,Clear,290,2013-09-04 20:15:00
4:35 PM,93.2,75.2,56,30.00,10.0,Calm,Calm,-,N/A,,Scattered Clouds,0,2013-09-04 20:35:00
4:55 PM,91.4,78.8,66,30.00,10.0,North,-9999.0,-,N/A,,Scattered Clouds,0,2013-09-04 20:55:00
5:15 PM,91.4,78.8,66,29.99,10.0,ESE,4.6,-,N/A,,Scattered Clouds,110,2013-09-04 21:15:00
5:35 PM,93.2,75.2,56,30.00,10.0,Calm,Calm,-,N/A,,Clear,0,2013-09-04 21:35:00
5:55 PM,93.2,75.2,56,30.00,10.0,Calm,Calm,-,N/A,,Clear,0,2013-09-04 21:55:00
6:15 PM,91.4,78.8,66,30.00,10.0,SSE,5.8,-,N/A,,Clear,150,2013-09-04 22:15:00
6:35 PM,91.4,75.2,59,30.00,10.0,North,-9999.0,-,N/A,,Scattered Clouds,0,2013-09-04 22:35:00
6:55 PM,91.4,77.0,63,30.00,10.0,SSW,4.6,-,N/A,,Clear,210,2013-09-04 22:55:00
7:15 PM,87.8,77.0,70,30.00,10.0,SSW,6.9,-,N/A,,Clear,210,2013-09-04 23:15:00
7:35 PM,86.0,77.0,74,30.02,10.0,SW,3.5,-,N/A,,Clear,220,2013-09-04 23:35:00
7:55 PM,84.2,75.2,74,30.02,10.0,SW,4.6,-,N/A,,Mostly Cloudy,230,2013-09-04 23:55:00
8:15 PM,84.2,75.2,74,30.03,10.0,SE,3.5,-,N/A,,Mostly Cloudy,140,2013-09-05 00:15:00
8:35 PM,82.4,75.2,79,30.04,10.0,SE,8.1,-,N/A,,Mostly Cloudy,130,2013-09-05 00:35:00
8:55 PM,82.4,73.4,74,30.05,10.0,SSW,5.8,-,N/A,,Scattered Clouds,200,2013-09-05 00:55:00
9:15 PM,82.4,75.2,79,30.07,10.0,SSE,3.5,-,N/A,,Mostly Cloudy,160,2013-09-05 01:15:00
9:35 PM,80.6,73.4,79,30.08,-9999.0,NNE,6.9,17.3,N/A,,Overcast,30,2013-09-05 01:35:00
9:55 PM,80.6,77.0,89,30.08,10.0,SSE,5.8,-,N/A,,Overcast,150,2013-09-05 01:55:00
10:15 PM,78.8,77.0,94,30.08,10.0,Calm,Calm,-,N/A,,Unknown,0,2013-09-05 02:15:00
10:35 PM,78.8,77.0,94,30.08,10.0,SW,3.5,-,N/A,,Clear,220,2013-09-05 02:35:00
10:55 PM,78.8,78.8,100,30.07,10.0,SW,3.5,-,N/A,,Clear,230,2013-09-05 02:55:00
11:15 PM,78.8,77.0,94,30.07,10.0,SSW,3.5,-,N/A,,Clear,200,2013-09-05 03:15:00
11:35 PM,78.8,77.0,94,30.07,10.0,Calm,Calm,-,N/A,,Clear,0,2013-09-05 03:35:00
11:55 PM,78.8,77.0,94,30.07,10.0,South,3.5,-,N/A,,Clear,180,2013-09-05 03:55:00